Regional Weather Roundup
Issued by NWS

Home | Current Version | Previous Version | Text Only | Print | Product List | Glossary Off
Versions: 1 2 3 4 5 6 7 8 9 10 11 12 13 14 15 16 17 18 19 20 21 22 23 24 25 26 27 28 29 30 31 32 33 34 35 36 37 38 39 40 41 42 43 44 45 46 47 48 49 50

000
ASUS45 KPSR 010510
RWRAZ

ARIZONA HOURLY REGIONAL WEATHER ROUNDUP
NATIONAL WEATHER SERVICE PHOENIX AZ
1000 PM MST TUE FEB 28 2017

NOTE: FAIR INDICATES FEW OR NO CLOUDS BELOW 12,000 FEET WITH NO
SIGNIFICANT WEATHER AND/OR OBSTRUCTIONS TO VISIBILITY.

AZZ001>003-036-010600-
NORTHWEST ARIZONA

CITY           SKY/WX    TMP DP  RH WIND       PRES   REMARKS
BULLHEAD CITY  CLEAR     55  39  54 NE5       30.19R
KINGMAN        CLEAR     37  29  72 CALM      30.20R
$$

AZZ004>008-015-016-018-010600-
NORTH CENTRAL ARIZONA

CITY           SKY/WX    TMP DP  RH WIND       PRES   REMARKS
GRAND CANYON   CLEAR     21  19  92 CALM      30.20R
WILLIAMS       MOCLDY    28  25  86 CALM      30.20R
PRESCOTT       CLEAR     36  32  85 S6        30.19R WCI  31
FLAGSTAFF      CLEAR     25  21  85 NW3       30.18R
PAYSON         CLEAR     36  32  87 CALM      30.22R
PAGE           CLEAR     40  11  30 W6        30.18R
$$

AZZ009>014-017-010600-
NORTHEAST ARIZONA

CITY           SKY/WX    TMP DP  RH WIND       PRES   REMARKS
WINSLOW        CLEAR     34  31  88 CALM      30.19R
SAINT JOHNS    CLEAR     36  29  75 W15       30.16R WCI  27
WINDOW ROCK    CLEAR     30  21  69 W5        30.15R WCI  25
SHOW LOW       PTCLDY    32  28  86 S9        30.20R WCI  24
$$

AZZ023-010600-
GREATER PHOENIX AREA

CITY           SKY/WX    TMP DP  RH WIND       PRES   REMARKS
PHOENIX        CLEAR     55  44  66 CALM      30.15R
BUCKEYE        CLEAR     48  48 100 N8        30.16R
LUKE AFB       CLEAR     51  42  70 CALM      30.15R
DEER VALLEY    CLEAR     50  42  74 CALM      30.15R
SCOTTSDALE     CLEAR     52  41  66 CALM      30.17R
MESA-GATEWAY   PTCLDY    52  43  71 CALM      30.17R
$$

AZZ027-028-010600-
SOUTHWEST MARICOPA COUNTY AND PINAL COUNTY

CITY           SKY/WX    TMP DP  RH WIND       PRES   REMARKS
CASA GRANDE    NOT AVBL
GILA BEND      CLEAR     54  44  69 CALM      30.15R
$$

AZZ503-504-507>509-010600-
SOUTHEAST ARIZONA

CITY           SKY/WX    TMP DP  RH WIND       PRES   REMARKS
TUCSON         CLEAR     53  40  61 SW5       30.18R
DAVIS-MONTHAN  CLEAR     50  42  75 SW5       30.17R
NOGALES        CLEAR     44  34  67 E3        30.17R
SIERRA VISTA   CLEAR     46  33  62 SW6       30.19R
DOUGLAS        CLEAR     47  30  51 W7        30.17R
SAFFORD        CLEAR     45  41  86 NW5       30.15R
$$

AZZ020-021-025-026-031-010600-
SOUTHWEST ARIZONA

CITY           SKY/WX    TMP DP  RH WIND       PRES   REMARKS
YUMA           NOT AVBL
$$

CAZ031-033-041-043-047-048-061-010600-
SOUTHERN CALIFORNIA

CITY           SKY/WX    TMP DP  RH WIND       PRES   REMARKS
DOWNTOWN L.A.  CLEAR     55  43  63 CALM      30.20S
L.A. AIRPORT   CLEAR     54  44  69 N3        30.21R
SAN DIEGO      PTCLDY    55  44  66 NE3       30.21R
BURBANK        CLEAR     52  36  54 NW5       30.20R
ONTARIO        PTCLDY    50  40  68 CALM      30.19S
RIVERSIDE      CLEAR     50  41  71 CALM      30.21R
PALM SPRINGS   CLEAR     59  44  57 W3        30.19R
EL CENTRO NAS  CLEAR     59  36  42 CALM      30.16R
IMPERIAL       CLEAR     56  42  59 CALM      30.14R
BLYTHE         CLEAR     54  51  90 N7        30.16R
NEEDLES        CLEAR     56  45  66 W9        30.18R
$$

NVZ020-UTZ003-010600-
SOUTHERN NEVADA-UTAH

CITY           SKY/WX    TMP DP  RH WIND       PRES   REMARKS
LAS VEGAS      CLEAR     53  18  25 CALM      30.18R
SALT LAKE CITY MOCLDY    30  27  88 SE3       30.24R
$$

NMZ009-TXZ055-010600-
NEW MEXICO-WEST TEXAS

CITY           SKY/WX    TMP DP  RH WIND       PRES   REMARKS
ALBUQUERQUE    CLOUDY    42  30  62 W8        30.10R
EL PASO        PTCLDY    55  29  36 NW16G24   29.90F
$$


........................KEY........................
SKY/WX - SKY CONDITION/WEATHER
TMP    - TEMPERATURE IN FAHRENHEIT
DP     - DEW POINT IN FAHRENHEIT
RH     - RELATIVE HUMIDITY IN PERCENT
WIND   - DIRECTION AND SPEED IN MILES PER HOUR (MPH)
VRB    - VARIABLE WIND DIRECTION
PRES   - MEAN SEA LEVEL PRESSURE IN INCHES OF MERCURY
         F - FALLING PRESSURE   R - RISING PRESSURE
         S - STEADY PRESSURE
VSB    - VISIBILITY IN MILES
HX     - HEAT INDEX IN FAHRENHEIT
WCI    - WIND CHILL INDEX IN FAHRENHEIT
TC     - TEMPERATURE IN CELSIUS WHICH IS ALSO KNOWN AS
         TEMPERATURE IN CENTIGRADE
AFB    - AIR FORCE BASE
         LUKE AFB IS LUKE AIR FORCE BASE
         DAVIS-MONTHAN IS DAVIS-MONTHAN AIR FORCE BASE
NAS    - NAVAL AIR STATION
         EL CENTRO NAS IS EL CENTRO NAVAL AIR STATION
N/A    - NOT AVAILABLE




USA.gov is the U.S. government's official web portal to all federal, state and local government web resources and services.